Previsão horária em Sennoy

Hoje, 5 Dezembro, Sábado

Tempo Temperatura Precipitação Vento Pressão Humidade
00:00 -15°C° 0 mm 1 m/s 778 mmHg 91%
01:00 -15°C° 0 mm 1 m/s 778 mmHg 91%
02:00 -15°C° 0 mm 1 m/s 778 mmHg 90%
03:00 -15°C° 0 mm 1 m/s 778 mmHg 89%
04:00 -15°C° 0 mm 1 m/s 778 mmHg 88%
05:00 -15°C° 0 mm 1 m/s 778 mmHg 87%
06:00 -15°C° 0 mm 1 m/s 778 mmHg 86%
07:00 -14°C° 0 mm 1 m/s 778 mmHg 85%
08:00 -14°C° 0 mm 1 m/s 778 mmHg 84%
09:00 -14°C° 0 mm 1 m/s 778 mmHg 84%
10:00 -12°C° 0 mm 1 m/s 778 mmHg 83%
11:00 -11°C° 0 mm 1 m/s 778 mmHg 82%
12:00 -10°C° 0 mm 1 m/s 778 mmHg 81%
13:00 -10°C° 0 mm 1 m/s 778 mmHg 82%
14:00 -11°C° 0 mm 1 m/s 778 mmHg 82%
15:00 -11°C° 0 mm 1 m/s 778 mmHg 83%
16:00 -12°C° 0 mm 1 m/s 778 mmHg 83%
17:00 -12°C° 0 mm 1 m/s 778 mmHg 83%
18:00 -12°C° 0 mm 1 m/s 778 mmHg 83%
19:00 -13°C° 0 mm 1 m/s 778 mmHg 83%
20:00 -13°C° 0 mm 1 m/s 778 mmHg 83%
21:00 -15°C° 0 mm 2 m/s 778 mmHg 84%
22:00 -15°C° 0 mm 2 m/s 778 mmHg 84%
23:00 -13°C° 0 mm 1 m/s 778 mmHg 84%

Amanhã, 6 Dezembro, Domingo

Tempo Temperatura Precipitação Vento Pressão Humidade
00:00 -13°C° 0 mm 1 m/s 778 mmHg 85%
01:00 -13°C° 0 mm 1 m/s 778 mmHg 85%
02:00 -13°C° 0 mm 1 m/s 779 mmHg 86%
03:00 -14°C° 0 mm 1 m/s 779 mmHg 86%
04:00 -14°C° 0 mm 1 m/s 779 mmHg 87%
05:00 -14°C° 0 mm 1 m/s 779 mmHg 87%
06:00 -14°C° 0 mm 1 m/s 779 mmHg 87%
07:00 -14°C° 0 mm 1 m/s 779 mmHg 87%
08:00 -13°C° 0 mm 1 m/s 779 mmHg 87%
09:00 -13°C° 0 mm 1 m/s 779 mmHg 87%
10:00 -12°C° 0 mm 1 m/s 779 mmHg 86%
11:00 -11°C° 0 mm 1 m/s 779 mmHg 85%
12:00 -10°C° 0 mm 1 m/s 779 mmHg 84%
13:00 -10°C° 0 mm 1 m/s 779 mmHg 84%
14:00 -11°C° 0 mm 0 m/s 779 mmHg 85%
15:00 -11°C° 0 mm 0 m/s 778 mmHg 85%
16:00 -12°C° 0 mm 0 m/s 778 mmHg 84%
17:00 -12°C° 0 mm 1 m/s 778 mmHg 83%
18:00 -12°C° 0 mm 1 m/s 779 mmHg 82%
19:00 -12°C° 0 mm 1 m/s 779 mmHg 80%
20:00 -12°C° 0 mm 1 m/s 779 mmHg 79%
21:00 -12°C° 0 mm 1 m/s 779 mmHg 77%
22:00 -12°C° 0 mm 1 m/s 779 mmHg 76%
23:00 -12°C° 0 mm 1 m/s 779 mmHg 75%

Depois de amanhã, 7 Dezembro, Segunda-feira

Tempo Temperatura Precipitação Vento Pressão Humidade
00:00 -12°C° 0 mm 1 m/s 779 mmHg 74%
01:00 -12°C° 0 mm 1 m/s 778 mmHg 73%
02:00 -11°C° 0 mm 1 m/s 778 mmHg 73%
03:00 -11°C° 0 mm 1 m/s 778 mmHg 72%
04:00 -11°C° 0 mm 1 m/s 778 mmHg 71%
05:00 -11°C° 0 mm 1 m/s 778 mmHg 71%
06:00 -11°C° 0 mm 1 m/s 777 mmHg 70%
07:00 -11°C° 0 mm 1 m/s 777 mmHg 70%
08:00 -10°C° 0 mm 1 m/s 777 mmHg 69%
09:00 -10°C° 0 mm 1 m/s 777 mmHg 69%
10:00 -9°C° 0 mm 1 m/s 777 mmHg 70%
11:00 -8°C° 0 mm 1 m/s 777 mmHg 71%
12:00 -6°C° 0 mm 1 m/s 777 mmHg 73%
13:00 -7°C° 0 mm 1 m/s 777 mmHg 72%
14:00 -7°C° 0 mm 1 m/s 776 mmHg 71%
15:00 -7°C° 0 mm 1 m/s 776 mmHg 71%
16:00 -8°C° 0 mm 1 m/s 776 mmHg 71%
17:00 -8°C° 0 mm 1 m/s 776 mmHg 71%
18:00 -9°C° 0 mm 2 m/s 776 mmHg 71%
19:00 -10°C° 0 mm 2 m/s 776 mmHg 71%
20:00 -10°C° 0 mm 2 m/s 776 mmHg 72%
21:00 -10°C° 0 mm 2 m/s 776 mmHg 72%
22:00 -10°C° 0 mm 2 m/s 776 mmHg 73%
23:00 -10°C° 0 mm 2 m/s 776 mmHg 73%

8 Dezembro, Terça-feira

Tempo Temperatura Precipitação Vento Pressão Humidade
00:00 -12°C° 0 mm 2 m/s 776 mmHg 73%
01:00 -12°C° 0 mm 2 m/s 776 mmHg 75%
02:00 -12°C° 0 mm 2 m/s 776 mmHg 76%
03:00 -12°C° 0 mm 2 m/s 776 mmHg 77%
04:00 -12°C° 0 mm 2 m/s 776 mmHg 79%
05:00 -13°C° 0 mm 2 m/s 776 mmHg 80%
06:00 -13°C° 0 mm 2 m/s 776 mmHg 82%
07:00 -10°C° 0 mm 2 m/s 776 mmHg 86%
08:00 -9°C° 0 mm 2 m/s 776 mmHg 89%
09:00 -6°C° 0 mm 1 m/s 777 mmHg 93%
10:00 -6°C° 0 mm 2 m/s 777 mmHg 93%
11:00 -6°C° 0 mm 2 m/s 777 mmHg 93%
12:00 -5°C° 0 mm 2 m/s 777 mmHg 93%
13:00 -5°C° 0 mm 2 m/s 777 mmHg 94%
14:00 -5°C° 0 mm 2 m/s 777 mmHg 95%
15:00 -5°C° 0 mm 2 m/s 777 mmHg 95%
16:00 -5°C° 0 mm 2 m/s 777 mmHg 96%
17:00 -6°C° 0 mm 2 m/s 777 mmHg 96%
18:00 -6°C° 0 mm 2 m/s 777 mmHg 96%
19:00 -4°C° 0 mm 1 m/s 777 mmHg 96%
20:00 -4°C° 0 mm 1 m/s 777 mmHg 96%
21:00 -4°C° 0 mm 1 m/s 777 mmHg 96%
22:00 -4°C° 0 mm 1 m/s 777 mmHg 96%
23:00 -6°C° 0 mm 1 m/s 777 mmHg 96%

9 Dezembro, Quarta-feira

Tempo Temperatura Precipitação Vento Pressão Humidade
00:00 -6°C° 0 mm 1 m/s 777 mmHg 96%
01:00 -6°C° 0 mm 1 m/s 777 mmHg 95%
02:00 -6°C° 0 mm 1 m/s 777 mmHg 95%
03:00 -6°C° 0 mm 1 m/s 777 mmHg 95%
04:00 -7°C° 0 mm 1 m/s 777 mmHg 95%
05:00 -8°C° 0 mm 1 m/s 777 mmHg 95%
06:00 -8°C° 0 mm 1 m/s 777 mmHg 95%
07:00 -9°C° 0 mm 1 m/s 777 mmHg 95%
08:00 -9°C° 0 mm 1 m/s 777 mmHg 95%
09:00 -9°C° 0 mm 1 m/s 777 mmHg 95%
10:00 -9°C° 0 mm 1 m/s 777 mmHg 94%
11:00 -9°C° 0 mm 2 m/s 777 mmHg 93%
12:00 -9°C° 0 mm 2 m/s 777 mmHg 92%
13:00 -9°C° 0 mm 2 m/s 777 mmHg 93%
14:00 -10°C° 0 mm 2 m/s 777 mmHg 94%
15:00 -10°C° 0 mm 1 m/s 777 mmHg 94%
16:00 -10°C° 0 mm 1 m/s 777 mmHg 94%
17:00 -11°C° 0 mm 1 m/s 777 mmHg 95%
18:00 -12°C° 0 mm 1 m/s 777 mmHg 95%
19:00 -12°C° 0 mm 1 m/s 777 mmHg 95%
20:00 -12°C° 0 mm 1 m/s 777 mmHg 95%
21:00 -13°C° 0 mm 1 m/s 777 mmHg 95%
22:00 -13°C° 0 mm 1 m/s 777 mmHg 95%
23:00 -13°C° 0 mm 1 m/s 777 mmHg 95%

10 Dezembro, Quinta-feira

Tempo Temperatura Precipitação Vento Pressão Humidade
00:00 -13°C° 0 mm 1 m/s 777 mmHg 95%
01:00 -13°C° 0 mm 1 m/s 777 mmHg 95%
02:00 -14°C° 0 mm 1 m/s 777 mmHg 94%
03:00 -14°C° 0 mm 1 m/s 777 mmHg 94%
04:00 -14°C° 0 mm 1 m/s 777 mmHg 94%
05:00 -14°C° 0 mm 1 m/s 777 mmHg 93%
06:00 -14°C° 0 mm 1 m/s 776 mmHg 92%
07:00 -13°C° 0 mm 1 m/s 776 mmHg 92%
08:00 -13°C° 0 mm 1 m/s 777 mmHg 91%
09:00 -13°C° 0 mm 1 m/s 777 mmHg 90%
10:00 -12°C° 0 mm 1 m/s 777 mmHg 88%
11:00 -11°C° 0 mm 1 m/s 776 mmHg 87%
12:00 -10°C° 0 mm 0 m/s 776 mmHg 85%
13:00 -10°C° 0 mm 1 m/s 776 mmHg 86%
14:00 -11°C° 0 mm 1 m/s 776 mmHg 87%
15:00 -11°C° 0 mm 1 m/s 775 mmHg 88%
16:00 -11°C° 0 mm 1 m/s 775 mmHg 88%
17:00 -12°C° 0 mm 1 m/s 775 mmHg 87%
18:00 -12°C° 0 mm 1 m/s 775 mmHg 87%
19:00 -12°C° 0 mm 1 m/s 775 mmHg 87%
20:00 -12°C° 0 mm 1 m/s 775 mmHg 87%
21:00 -13°C° 0 mm 1 m/s 775 mmHg 87%
22:00 -13°C° 0 mm 1 m/s 775 mmHg 87%
23:00 -13°C° 0 mm 1 m/s 775 mmHg 87%
Mostrar mais

Necessitamos do seu Consentimento

A Meteoprog e os seus Fornecedores de Serviços podem armazenar e aceder a dados pessoais como cookies, identificadores do dispositivo ou outras tecnologias semelhantes existentes no seu dispositivo e processar estes dados para personalizar conteúdos e anúncios, assim como funcionalidades nas redes sociais e análise de tráfego.

  • Armazenar e/ou aceder a informações no seu dispositivo

    Os cookies, identificadores do dispositivo ou outras informações podem ser armazenados ou acedidos no seu dispositivo, para os fins acima indicados.

  • Anúncios e conteúdos personalizados, medição de anúncios e conteúdos, dados sobre o público-alvo e desenvolvimento de produtos

    Os anúncios e os conteúdos podem ser personalizados com base num perfil. Podem ser adicionados dados adicionais para uma maior personalização dos anúncios e dos conteúdos. A eficácia dos anúncios e dos conteúdos pode ser medida. Podem ser obtidas informações sobre o público que visualizou os anúncios e os conteúdos. Estes dados podem ser usados para desenvolver ou melhorar sistemas, softwares ou a experiência do utilizador.

Ao clicar em "Eu concordo”, permitirá o uso de cookies, identificadores do dispositivo e web beacons mencionados ou outras tecnologias semelhantes. As configurações do navegador do seu dispositivo podem ser alteradas.

Para certos fins, podem ser invocados interesses legítimos ao invés de consentimento. Pode ler mais informação sobre este assunto na nossa Política de Privacidade e Cookies.